This is the latest recevied weather packets stored in our database for station/object KD8JAM. If no packets are shown the sender has not sent any weather packets the latest 10 day(s).
| Time | Temp. | Humidity | Pressure | Rain* | Wind** | Luminosity | Snow |
|---|---|---|---|---|---|---|---|
| 1777360336 | 5.56° C | 99% | 997.2 hPa | 0 mm | - | 0 W/m² | - |
| 1777360034 | 5.56° C | 99% | 997 hPa | 0 mm | - | 0 W/m² | - |
| 1777359730 | 5.56° C | 99% | 996.8 hPa | 0 mm | - | 0 W/m² | - |
| 1777359428 | 5.56° C | 99% | 996.8 hPa | 0 mm | - | 0 W/m² | - |
| 1777359124 | 5.56° C | 99% | 996.9 hPa | 0 mm | - | 0 W/m² | - |
| 1777358822 | 5.56° C | 99% | 997.1 hPa | 0 mm | - | 0 W/m² | - |
| 1777358518 | 5.56° C | 99% | 996.8 hPa | 0 mm | - | 0 W/m² | - |
| 1777358217 | 5.56° C | 99% | 997.1 hPa | 0 mm | - | 0 W/m² | - |
| 1777357915 | 6.11° C | 99% | 996.9 hPa | 0 mm | - | 0 W/m² | - |
| 1777357611 | 6.11° C | 99% | 996.9 hPa | 0 mm | - | 0 W/m² | - |
| 1777357308 | 6.67° C | 99% | 996.9 hPa | 0 mm | - | 0 W/m² | - |
| 1777357005 | 6.67° C | 99% | 996.7 hPa | 0 mm | - | 0 W/m² | - |
| 1777356703 | 7.22° C | 99% | 996.9 hPa | 1.78 mm | - | 0 W/m² | - |
| 1777356400 | 7.78° C | 99% | 996.8 hPa | 1.78 mm | - | 0 W/m² | - |
| 1777356096 | 7.78° C | 99% | 996.7 hPa | 0 mm | - | 0 W/m² | - |
| 1777355793 | 8.33° C | 99% | 996.9 hPa | 0 mm | - | 0 W/m² | - |
| 1777355490 | 8.33° C | 99% | 996.8 hPa | 0 mm | - | 0 W/m² | - |
| 1777355187 | 8.33° C | 99% | 997 hPa | 0 mm | - | 0 W/m² | - |
| 1777354883 | 7.78° C | 99% | 996.7 hPa | 0 mm | - | 0 W/m² | - |
| 1777354579 | 7.22° C | 99% | 996.5 hPa | 0 mm | - | 0 W/m² | - |
| 1777354275 | 7.22° C | 99% | 996.5 hPa | 0 mm | - | 0 W/m² | - |
| 1777353972 | 7.22° C | 99% | 996.5 hPa | 0 mm | - | 0 W/m² | - |
| 1777353668 | 7.22° C | 99% | 996.5 hPa | 0 mm | - | 0 W/m² | - |
| 1777353366 | 7.22° C | 99% | 996.8 hPa | 0 mm | - | 0 W/m² | - |
| 1777353064 | 7.22° C | 99% | 996.5 hPa | 0 mm | - | 0 W/m² | - |
* Rain latest hour (hover to see other rain measurements)
** Current wind speed in m/s (hover to see current wind gust speed)